Total_Precipitation_Accumulation
0.01 0.02 0.03 0.04 0.04 0.03 0.03 0.04 0.11 0.08 0.09 0.08 0.03 0.02 0.02 0.03 0.04 0.04 0.03 0.06 0.05 0.06 0.08 0.11 0.14 0.18 0.22 0.22 0.24 0.28 0.39 0.56 0.72 0.82 0.68 0.47 0.36 0.31 0.28 0.33 0.40 0.51 0.62 0.70
0.00 0.02 0.03 0.04 0.05 0.04 0.02 0.02 0.02 0.03 0.05 0.03 0.02 0.03 0.03 0.03 0.04 0.03 0.03 0.04 0.05 0.06 0.10 0.12 0.13 0.14 0.15 0.17 0.19 0.24 0.32 0.38 0.48 0.54 0.45 0.32 0.20 0.15 0.20 0.28 0.36 0.43 0.50 0.56
0.00 0.02 0.02 0.06 0.06 0.04 0.02 0.03 0.04 0.05 0.06 0.04 0.04 0.05 0.05 0.05 0.04 0.03 0.02 0.02 0.01 0.02 0.03 0.04 0.07 0.08 0.08 0.10 0.16 0.27 0.35 0.35 0.41 0.45 0.40 0.28 0.16 0.15 0.18 0.25 0.31 0.36 0.38 0.41
0.00 0.01 0.06 0.06 0.03 0.03 0.03 0.04 0.05 0.06 0.06 0.06 0.07 0.06 0.06 0.06 0.04 0.03 0.02 0.01 0.01 0.01 0.02 0.02 0.03 0.03 0.04 0.08 0.16 0.25 0.31 0.32 0.41 0.49 0.45 0.36 0.29 0.27 0.28 0.33 0.35 0.36 0.36 0.36
0.01 0.01 0.05 0.04 0.05 0.07 0.08 0.07 0.06 0.07 0.08 0.08 0.07 0.05 0.04 0.03 0.02 0.01 0.01 0.01 0.02 0.02 0.03 0.03 0.04 0.04 0.05 0.08 0.16 0.23 0.29 0.35 0.41 0.49 0.51 0.45 0.42 0.42 0.44 0.44 0.43 0.41 0.39 0.38
0.01 0.05 0.08 0.06 0.07 0.09 0.08 0.16 0.13 0.10 0.07 0.04 0.03 0.05 0.02 0.01 0.01 0.01 0.01 0.01 0.02 0.02 0.03 0.04 0.05 0.08 0.12 0.14 0.18 0.26 0.32 0.38 0.44 0.54 0.61 0.56 0.54 0.55 0.55 0.57 0.51 0.48 0.44 0.45
0.04 0.09 0.10 0.05 0.05 0.05 0.13 0.19 0.07 0.03 0.02 0.02 0.05 0.08 0.03 0.01 0.01 0.01 0.01 0.02 0.03 0.04 0.05 0.06 0.09 0.14 0.19 0.19 0.22 0.26 0.31 0.36 0.46 0.61 0.68 0.67 0.71 0.74 0.70 0.65 0.63 0.63 0.58 0.56
0.06 0.12 0.14 0.04 0.03 0.05 0.07 0.04 0.03 0.03 0.03 0.04 0.03 0.02 0.02 0.01 0.01 0.01 0.02 0.03 0.04 0.05 0.08 0.11 0.15 0.22 0.27 0.29 0.29 0.30 0.34 0.41 0.53 0.61 0.57 0.56 0.73 0.81 0.81 0.79 0.76 0.74 0.71 0.66
0.07 0.09 0.04 0.02 0.02 0.03 0.03 0.05 0.04 0.04 0.02 0.03 0.03 0.03 0.03 0.03 0.02 0.03 0.03 0.05 0.06 0.10 0.13 0.17 0.25 0.34 0.43 0.43 0.42 0.40 0.42 0.47 0.54 0.58 0.64 0.73 0.80 0.81 0.85 0.87 0.83 0.77 0.77 0.76
0.07 0.04 0.02 0.02 0.02 0.02 0.02 0.03 0.02 0.02 0.02 0.03 0.05 0.05 0.05 0.05 0.05 0.04 0.05 0.06 0.08 0.11 0.18 0.26 0.37 0.47 0.55 0.56 0.54 0.52 0.49 0.48 0.51 0.58 0.64 0.78 0.92 0.92 0.89 0.87 0.88 0.86 0.82 0.79
0.06 0.04 0.03 0.03 0.03 0.02 0.01 0.01 0.01 0.02 0.02 0.04 0.06 0.07 0.06 0.06 0.06 0.06 0.06 0.05 0.07 0.14 0.24 0.33 0.47 0.58 0.60 0.61 0.63 0.65 0.59 0.54 0.53 0.58 0.67 0.79 0.89 0.95 0.89 0.87 0.74 0.74 0.76 0.77
0.07 0.07 0.08 0.07 0.04 0.02 0.02 0.02 0.03 0.03 0.03 0.03 0.05 0.06 0.06 0.06 0.07 0.07 0.07 0.07 0.13 0.20 0.27 0.32 0.45 0.60 0.66 0.69 0.74 0.78 0.75 0.70 0.67 0.69 0.74 0.78 0.85 0.85 0.73 0.63 0.52 0.48 0.48 0.51
0.06 0.05 0.06 0.07 0.05 0.04 0.05 0.04 0.03 0.03 0.04 0.04 0.04 0.05 0.06 0.06 0.06 0.07 0.07 0.11 0.16 0.21 0.26 0.31 0.39 0.51 0.61 0.74 0.85 0.89 0.88 0.85 0.84 0.78 0.79 0.84 0.89 0.94 0.91 0.75 0.60 0.48 0.39 0.34
0.04 0.05 0.06 0.05 0.04 0.03 0.03 0.03 0.02 0.03 0.03 0.04 0.04 0.04 0.05 0.06 0.06 0.08 0.11 0.13 0.15 0.19 0.25 0.34 0.43 0.50 0.58 0.74 0.86 0.89 0.89 0.88 0.86 0.84 0.82 0.85 0.89 0.91 0.96 0.97 0.88 0.71 0.50 0.37
0.03 0.05 0.05 0.04 0.02 0.02 0.03 0.03 0.02 0.03 0.04 0.04 0.05 0.05 0.05 0.07 0.09 0.11 0.13 0.16 0.20 0.23 0.28 0.38 0.49 0.56 0.68 0.81 0.88 0.88 0.87 0.85 0.81 0.83 0.84 0.83 0.85 0.86 0.85 0.90 0.90 0.85 0.69 0.50
0.03 0.03 0.03 0.03 0.02 0.03 0.04 0.04 0.05 0.05 0.06 0.06 0.06 0.06 0.07 0.08 0.10 0.12 0.15 0.20 0.30 0.34 0.40 0.51 0.58 0.62 0.75 0.87 0.94 0.91 0.88 0.80 0.74 0.74 0.79 0.81 0.82 0.83 0.80 0.84 0.84 0.83 0.72 0.57
0.05 0.04 0.02 0.02 0.04 0.05 0.06 0.07 0.08 0.07 0.08 0.08 0.08 0.08 0.08 0.11 0.15 0.19 0.22 0.25 0.32 0.39 0.48 0.62 0.65 0.65 0.78 0.91 1.00 0.98 0.91 0.80 0.67 0.66 0.70 0.75 0.79 0.80 0.77 0.76 0.75 0.76 0.66 0.48
0.05 0.05 0.05 0.05 0.07 0.08 0.10 0.11 0.11 0.12 0.13 0.13 0.13 0.14 0.17 0.24 0.33 0.39 0.40 0.41 0.44 0.42 0.45 0.56 0.62 0.68 0.77 0.87 0.94 0.97 0.96 0.88 0.76 0.64 0.62 0.67 0.73 0.76 0.75 0.70 0.67 0.67 0.58 0.42
0.06 0.06 0.08 0.12 0.17 0.18 0.18 0.19 0.19 0.20 0.21 0.20 0.21 0.23 0.28 0.36 0.48 0.56 0.57 0.61 0.66 0.64 0.56 0.55 0.60 0.63 0.71 0.77 0.82 0.91 0.88 0.83 0.73 0.57 0.55 0.59 0.66 0.72 0.70 0.62 0.61 0.60 0.52 0.40
0.05 0.05 0.07 0.16 0.28 0.33 0.33 0.32 0.32 0.31 0.29 0.28 0.30 0.34 0.40 0.46 0.56 0.67 0.70 0.68 0.69 0.74 0.69 0.61 0.58 0.60 0.64 0.68 0.72 0.77 0.75 0.75 0.71 0.53 0.48 0.59 0.65 0.68 0.64 0.54 0.54 0.51 0.42 0.36
0.02 0.03 0.04 0.06 0.13 0.21 0.26 0.28 0.29 0.32 0.33 0.38 0.48 0.58 0.65 0.64 0.67 0.79 0.89 0.79 0.65 0.68 0.66 0.59 0.52 0.53 0.55 0.66 0.70 0.72 0.69 0.67 0.69 0.57 0.48 0.54 0.61 0.63 0.57 0.49 0.44 0.37 0.31 0.29
0.02 0.03 0.05 0.06 0.08 0.09 0.11 0.13 0.20 0.30 0.38 0.43 0.50 0.63 0.77 0.83 0.88 0.88 0.81 0.78 0.72 0.71 0.63 0.55 0.49 0.46 0.47 0.54 0.65 0.69 0.67 0.65 0.66 0.62 0.53 0.52 0.56 0.54 0.50 0.41 0.31 0.26 0.22 0.20
0.01 0.02 0.03 0.03 0.04 0.06 0.08 0.11 0.17 0.27 0.37 0.44 0.53 0.71 0.88 0.93 1.02 1.15 0.97 0.72 0.66 0.67 0.61 0.52 0.47 0.43 0.40 0.39 0.52 0.59 0.59 0.62 0.63 0.61 0.55 0.49 0.44 0.42 0.39 0.30 0.22 0.19 0.19 0.19
0.02 0.02 0.02 0.02 0.05 0.07 0.11 0.14 0.18 0.25 0.34 0.41 0.49 0.66 0.88 1.04 1.00 0.90 0.85 0.73 0.63 0.56 0.54 0.48 0.39 0.36 0.34 0.32 0.38 0.46 0.49 0.53 0.50 0.47 0.43 0.38 0.37 0.35 0.27 0.23 0.17 0.14 0.17 0.17
0.03 0.03 0.04 0.05 0.10 0.17 0.24 0.30 0.34 0.38 0.46 0.49 0.49 0.56 0.67 0.90 1.05 0.88 0.69 0.62 0.58 0.49 0.47 0.45 0.38 0.34 0.30 0.26 0.27 0.32 0.37 0.40 0.38 0.37 0.34 0.31 0.29 0.26 0.21 0.17 0.13 0.11 0.13 0.14
0.04 0.05 0.06 0.09 0.16 0.27 0.40 0.52 0.61 0.65 0.74 0.79 0.70 0.64 0.65 0.72 0.82 0.79 0.65 0.55 0.51 0.47 0.41 0.38 0.35 0.31 0.26 0.24 0.22 0.25 0.32 0.36 0.36 0.33 0.28 0.27 0.24 0.21 0.20 0.17 0.11 0.09 0.08 0.09
0.07 0.07 0.09 0.13 0.20 0.32 0.48 0.63 0.76 0.84 0.92 1.00 0.95 0.81 0.74 0.71 0.73 0.72 0.64 0.55 0.50 0.47 0.42 0.37 0.34 0.31 0.28 0.26 0.23 0.24 0.28 0.33 0.33 0.31 0.29 0.29 0.29 0.23 0.18 0.13 0.09 0.06 0.05 0.05